Content
SEND FEEDBACK

Daily
Averages
Monthly
Summary
United States of America

POTTS JUNCTION, GUAM


Home > North America > United States > Guam
Elevation: 110 meters     Latitude: 13 33N     Longitude: 144 50E

WEATHER
 
SELECT A DAY
Number of Records: 208,892;   Date Range: 1/1/95 - 7/22/14
 
SHARE

PRINT THIS DATA

[ ← Previous Day ]
WEATHER ALMANAC - 14 FEBRUARY, 2013
[ Next Day → ]
[ °F ]   °C
Weather ElementAverageHighLow
Temperature25.5 °C28.4 °C (11:54 am)23.3 °C (5:54 am)
Dewpoint22.3 °C23 °C (2:37 pm)21.1 °C (4:54 am)
Humidity82.7 %91 % (8:54 pm)69 % (11:54 am)
Barometer1010.8 hPa1012.5 hPa (8:54 am)1009.1 hPa (3:54 pm)
Wind Speed25.3 km/h37 km/h (2:54 pm)
Wind Gust48.1 km/h (10:54 am)
Weather ElementAverage
Visibility15.8 km
Wind DirectionENE (61.6 °)

Weather ElementTotal
Precipitation---
Cooling Degree Days7.5 (Base 18.3)
Growing Degree Days15.8 (Base 10)
Averaged from 25 records on 14 February, 2013
WEATHER CONDITIONS BREAKOUT
WIND DIRECTION BREAKOUT
WEATHER BY HOUR - 14 FEBRUARY, 2013
[ °F ]   °C
Local TimeTemperatureDewpointHumidityBarometerVisibilityWind DirectionWind SpeedGust SpeedPrecipitationEventsConditions
1:54 AM23.9 °C21.7 °C87 %1011.9 hPa16.1 kmENE (70°)24.1 km/hPartly Cloudy
2:54 AM23.9 °C21.7 °C87 %1011.5 hPa16.1 kmEast (80°)25.9 km/h35.2 km/hScattered Clouds
3:54 AM23.9 °C21.7 °C87 %1011.2 hPa16.1 kmENE (70°)20.4 km/hPartly Cloudy
4:54 AM23.9 °C21.1 °C84 %1011.2 hPa16.1 kmENE (70°)18.5 km/hClear
5:54 AM23.3 °C21.1 °C87 %1011.5 hPa16.1 kmENE (60°)18.5 km/hClear
6:54 AM23.3 °C21.1 °C87 %1011.9 hPa16.1 kmENE (60°)16.7 km/hClear
7:54 AM23.9 °C22.2 °C90 %1012.2 hPa16.1 kmNE (50°)18.5 km/hPartly Cloudy
8:54 AM25 °C22.8 °C88 %1012.5 hPa6.4 kmNE (50°)27.8 km/hPartly Cloudy
9:54 AM27.6 °C22.9 °C75 %1012.5 hPa16.1 kmENE (60°)29.6 km/hScattered Clouds
10:54 AM28.1 °C22.9 °C73 %1012.2 hPa16.1 kmENE (70°)33.3 km/h48.1 km/hPartly Cloudy
11:54 AM28.4 °C22.3 °C69 %1011.5 hPa16.1 kmENE (60°)29.6 km/h48.1 km/hClear
12:54 PM26.7 °C21.7 °C74 %1010.8 hPa16.1 kmENE (60°)31.5 km/h44.4 km/hScattered Clouds
1:54 PM26.7 °C21.7 °C74 %1009.8 hPa16.1 kmENE (60°)29.6 km/h44.4 km/hPartly Cloudy
2:37 PM27 °C23 °C79 %1010.2 hPa16.1 kmENE (60°)29.6 km/h42.6 km/hMostly Cloudy
2:54 PM26.7 °C22.2 °C76 %1009.5 hPa16.1 kmNE (50°)37 km/h46.3 km/hMostly Cloudy
3:09 PM27 °C22 °C74 %1009.8 hPa16.1 kmENE (60°)31.5 km/h48.1 km/hMostly Cloudy
3:54 PM26.7 °C22.8 °C79 %1009.1 hPa16.1 kmENE (60°)31.5 km/h46.3 km/hPartly Cloudy
4:54 PM26.1 °C22.8 °C82 %1009.5 hPa16.1 kmENE (60°)29.6 km/hPartly Cloudy
5:54 PM25.6 °C22.8 °C84 %1009.5 hPa16.1 kmENE (60°)22.2 km/h40.7 km/h0 mmScattered Clouds
6:54 PM25 °C22.8 °C88 %1009.8 hPa16.1 kmENE (60°)25.9 km/hPartly Cloudy
7:54 PM25 °C22.8 °C88 %1010.2 hPa16.1 kmENE (60°)18.5 km/hPartly Cloudy
8:54 PM24.4 °C22.8 °C91 %1010.5 hPa16.1 kmENE (60°)20.4 km/hPartly Cloudy
9:54 PM25 °C22.8 °C88 %1010.8 hPa16.1 kmENE (70°)18.5 km/hScattered Clouds
10:54 PM25 °C22.8 °C88 %1011.2 hPa16.1 kmENE (60°)22.2 km/hMostly Cloudy
11:54 PM25 °C22.8 °C88 %1010.8 hPa16.1 kmENE (60°)18.5 km/hPartly Cloudy
Hourly data recorded from PGUM, located 0 kilometers away from Potts Junction, Guam







STORIES FROM OUR PARTNERS